User: anonymous   Login
Location: Nitra
(0.0000°N, 18.0833°E)
Time: 09:05:00
(UTC+02:00)
Language:

CAS-4B - Orbit

View from above orbital plane
View from above orbital plane
View from above satellite
View from above satellite

Ground track
Ground track

The orbit data is extracted from the following two-line orbital elements,

1 42759U 17034B   23156.93221704  .00007051  00000-0  35886-3 0  9993
2 42759  43.0137 178.2472 0010183  22.6234 337.5062 15.17243729329922
Epoch (UTC): 05 June 2023 22:22:23
Eccentricity: 0.0010183
inclination: 43.0137°
perigee height: 507 km
apogee height: 521 km
right ascension of ascending node: 178.2472°
argument of perigee: 22.6234°
revolutions per day: 15.17243729
mean anomaly at epoch: 337.5062°
orbit number at epoch: 32992

The dashed part of the orbit path shows where the satellite is in the earth's shadow,  

DLR